Lid_Strength_Index
2 1 1 1 1 0 0 -0 -0 -1 -0 0 0 0 0 -1 -1 -2 -2 -2 -2 -2 -2 -1 -2 -2 -1 -1 -1 -1 -1 -1 -1 1 -0 0 -1 -1 -1 -2 -1 -1 -2
3 2 2 1 1 1 0 0 -0 -0 -0 -0 -0 -1 -0 -1 -1 -2 -2 -2 -2 -2 -2 -2 -1 -1 -1 -1 -1 -0 -0 -0 -0 1 1 3 2 0 -1 -1 -1 -1 -2
4 3 2 2 1 1 1 0 -0 -0 -1 -1 -1 -1 -1 -1 -0 -0 -1 -1 -2 -2 -2 -1 -1 -1 -1 -0 -1 -0 0 1 -0 -0 2 3 4 2 -0 -0 -1 -1 -2
3 3 2 2 1 1 0 -0 -0 -0 -0 -1 -1 -1 1 1 0 -0 -1 -1 -2 -2 -2 -2 -2 -1 -1 -1 -1 -1 -0 0 1 -1 -1 -0 1 3 3 1 0 -1 -0
3 3 2 2 1 1 1 0 -0 -0 -1 -1 -1 0 0 0 -0 -0 -1 -1 -1 -1 -2 -2 -2 -2 -1 -1 -1 -1 -0 -1 1 1 1 -0 -0 -0 2 3 2 0 -1
3 2 2 1 1 1 1 0 0 0 -0 -0 -1 -1 -1 -0 0 0 0 0 -0 -1 -2 -1 -2 -2 -1 -1 -1 -1 -1 -0 -0 0 -0 1 2 2 2 2 2 2 0
3 3 2 2 2 1 1 1 0 1 -0 -0 -0 -0 -1 -1 -0 -0 0 -0 0 -0 -1 -1 -1 -1 -2 -2 -2 -2 -1 -1 -0 -0 0 -0 0 0 1 1 2 2 0
3 3 2 2 3 1 1 1 1 1 0 -0 -0 -1 -1 0 -0 -0 -0 -0 -0 -0 -1 -1 -1 -1 -2 -1 -2 -1 -1 -2 -1 -0 -0 -0 -0 -1 0 1 2 3 1
3 3 2 2 2 1 1 1 1 0 0 0 -0 -0 -1 -1 -1 -1 -1 -0 -1 -1 -1 -1 -1 -1 -1 -1 -1 -0 -1 -1 -1 -1 -1 -0 -1 -1 -1 -0 0 2 4
4 3 2 2 1 1 1 1 0 1 0 0 -0 -0 -0 -1 -1 -1 -1 -1 -1 -1 -1 -1 -1 -1 -1 -1 -1 -1 -1 -1 -0 -0 -1 -1 -1 -0 -1 -0 -0 -0 2
4 3 3 2 1 1 1 1 1 1 1 0 -0 -0 -0 -0 -1 -0 -1 -1 -1 -1 -1 -1 -1 -1 -1 -1 -1 -1 -1 -0 -1 -1 -0 -0 -1 -0 -0 -0 -0 0 0
4 3 3 2 2 2 2 1 1 1 0 0 -0 0 -0 -0 -0 -0 -1 -1 -1 -1 -1 -1 -1 -1 -1 -1 -1 -0 -0 -0 -0 -0 -0 -0 -0 -1 -1 -0 -0 -0 -0
4 4 3 3 3 3 2 2 1 1 0 0 0 0 0 0 0 -0 -1 -1 -1 -1 -1 -1 -1 -1 -1 -1 -1 -1 -0 -0 -0 -0 -0 -0 -0 -0 -0 -0 0 -0 -0
4 4 3 3 3 3 2 2 1 1 0 0 0 0 0 0 -0 -0 -1 -1 -1 -1 -1 -1 -1 -1 -1 -1 -1 -1 -0 -0 -0 -1 -1 -1 -0 -0 -0 -0 -0 -0 1
4 4 4 3 3 3 2 2 1 1 1 0 0 1 -0 -1 -0 -0 -1 -1 -1 -1 -1 -1 -1 -1 -1 -0 -1 -1 -0 -0 -0 -1 -1 -1 -0 1 0 0 -0 -0 1
5 4 4 4 4 3 2 2 2 1 1 1 1 0 1 -0 -0 -0 -0 -0 -0 -0 -0 -0 -0 -0 -0 4 3 1 -0 -0 0 0 -1 -1 -0 -0 2 1 1 -0 0
5 4 4 3 3 2 2 2 2 1 1 1 1 1 1 1 1 1 1 0 -0 -0 -0 -0 -0 -0 1 6 4 3 -0 0 0 0 -0 0 -1 -0 -1 3 3 3 3
5 4 4 3 3 2 1 1 1 1 1 1 1 1 1 1 1 1 1 1 0 0 0 -0 -0 0 3 7 7 5 -0 -1 -0 0 0 0 0 -0 -1 -1 0 1 3
3 3 2 2 2 2 2 2 2 1 1 2 1 1 1 1 1 1 1 1 1 1 0 0 1 1 0 8 7 4 -0 -0 0 0 -0 -0 0 4 3 1 1 3 5
3 3 2 2 2 2 1 2 2 3 3 2 2 1 1 1 1 1 2 3 2 3 3 4 3 5 3 7 8 5 0 0 1 1 3 8 2 6 5 1 2 3 4
3 3 2 2 2 1 1 2 2 3 3 2 2 1 1 0 1 1 1 3 4 4 5 5 4 5 7 6 8 7 0 1 1 1 1 3 8 9 7 5 1 2 3
3 2 3 4 3 3 4 5 5 4 3 3 3 2 2 2 2 2 2 2 2 3 4 5 5 3 3 8 8 7 7 4 3 5 6 9 10 10 9 7 7 6 4
3 2 2 3 3 2 3 5 5 4 4 5 5 4 4 3 2 3 3 3 3 4 4 4 4 4 3 4 8 8 8 7 7 8 9 10 10 10 9 9 8 6 5
3 2 2 3 3 2 3 4 4 4 4 5 5 4 4 4 3 5 1 1 2 2 3 3 4 4 2 3 3 4 5 7 7 8 9 9 9 9 10 10 10 9 9
2 2 2 4 2 1 2 2 3 3 4 5 7 8 6 4 4 7 8 4 7 7 4 5 6 6 6 6 9 6 4 4 6 6 5 6 7 9 10 10 10 10 10
2 2 2 3 2 1 1 1 1 2 3 3 3 5 6 6 7 7 7 11 11 12 13 13 10 7 10 12 11 11 10 9 8 4 5 6 6 7 8 8 9 10 9